Location: Mahannah Oil Field
(37.4664°N, 96.6003°W)
Time: 01:39:27
(UTC+00:00)

A-11 Canister half - Pass Details

Date: 02 February 2021
Orbit: 1524 x 1684 km, 47.3° (Epoch: 25 February)

Event Time Altitude Azimuth Distance (km) Brightness Sun altitude
Rises 21:12:06 0° 281° (W) 4,674 11.9 25.2°
Reaches altitude 10° 21:15:20 10° 288° (WNW) 3,698 11.4 24.8°
Maximum altitude 21:24:14 46° 360° (N) 1,982 9.6 23.6°
Drops below altitude 10° 21:33:20 10° 72° (ENE) 3,786 10.6 22.4°
Sets 21:36:41 0° 78° (ENE) 4,794 11.1 21.9°
